When you browse on this site, cookies collect data to enhance your experience and personalize the content and advertising you see.
Visit our Privacy Policy to learn more. By continuing to use the site, you agree to this use of cookies and data.
  • In Schweiz
  • Länderverzeichnis
  • Für 7 Tage
  • Wassertemperatur
  • Satellitenkarten
  • Wetterkarte
  • Widgets
  • user-avatar
    Anmelden

    Stündliche Wetter Plavni

    Heute, 17 Februar, Sonntag

    Zeit Temperatur Niederschläge Wind Luftdruck Luftfeuchtigkeit
    00:00 +1°C° 0 mm 3 m/S 762 mmHg 90%
    01:00 +1°C° 0 mm 3 m/S 762 mmHg 90%
    02:00 +1°C° 0 mm 3 m/S 762 mmHg 90%
    03:00 +1°C° 0 mm 3 m/S 761 mmHg 90%
    04:00 +1°C° 0 mm 3 m/S 761 mmHg 90%
    05:00 0°C° 0 mm 4 m/S 761 mmHg 89%
    06:00 0°C° 0 mm 4 m/S 761 mmHg 90%
    07:00 0°C° 0 mm 4 m/S 761 mmHg 90%
    08:00 +1°C° 0 mm 5 m/S 760 mmHg 91%
    09:00 +2°C° 0 mm 5 m/S 760 mmHg 84%
    10:00 +3°C° 0 mm 5 m/S 760 mmHg 78%
    11:00 +5°C° 0 mm 5 m/S 759 mmHg 71%
    12:00 +7°C° 0 mm 6 m/S 759 mmHg 66%
    13:00 +8°C° 0 mm 7 m/S 758 mmHg 61%
    14:00 +9°C° 0 mm 7 m/S 758 mmHg 56%
    15:00 +9°C° 0 mm 7 m/S 757 mmHg 58%
    16:00 +8°C° 0 mm 7 m/S 757 mmHg 60%
    17:00 +8°C° 0 mm 6 m/S 756 mmHg 62%
    18:00 +5°C° 0 mm 6 m/S 756 mmHg 66%
    19:00 +4°C° 0 mm 6 m/S 757 mmHg 71%
    20:00 +3°C° 0 mm 6 m/S 757 mmHg 75%
    21:00 +2°C° 0 mm 6 m/S 757 mmHg 77%
    22:00 +2°C° 0 mm 6 m/S 757 mmHg 79%
    23:00 +2°C° 0 mm 5 m/S 757 mmHg 82%

    Morgen, 18 Februar, Montag

    Zeit Temperatur Niederschläge Wind Luftdruck Luftfeuchtigkeit
    00:00 +1°C° 0 mm 6 m/S 757 mmHg 81%
    01:00 +1°C° 0 mm 6 m/S 757 mmHg 80%
    02:00 +1°C° 0 mm 6 m/S 758 mmHg 79%
    03:00 +1°C° 0 mm 6 m/S 758 mmHg 77%
    04:00 -1°C° 0 mm 6 m/S 758 mmHg 76%
    05:00 -1°C° 0 mm 6 m/S 758 mmHg 75%
    06:00 -1°C° 0 mm 6 m/S 758 mmHg 75%
    07:00 -1°C° 0 mm 6 m/S 759 mmHg 76%
    08:00 -2°C° 0 mm 6 m/S 759 mmHg 76%
    09:00 0°C° 0 mm 5 m/S 760 mmHg 72%
    10:00 0°C° 0 mm 5 m/S 760 mmHg 67%
    11:00 +1°C° 0 mm 5 m/S 760 mmHg 63%
    12:00 +1°C° 0 mm 5 m/S 760 mmHg 59%
    13:00 +2°C° 0 mm 6 m/S 760 mmHg 56%
    14:00 +2°C° 0 mm 6 m/S 760 mmHg 53%
    15:00 +1°C° 0 mm 5 m/S 760 mmHg 56%
    16:00 +1°C° 0 mm 5 m/S 761 mmHg 59%
    17:00 0°C° 0 mm 5 m/S 761 mmHg 63%
    18:00 -1°C° 0 mm 5 m/S 761 mmHg 66%
    19:00 -2°C° 0 mm 5 m/S 762 mmHg 70%
    20:00 -2°C° 0 mm 4 m/S 762 mmHg 73%
    21:00 -3°C° 0 mm 4 m/S 763 mmHg 71%
    22:00 -3°C° 0 mm 4 m/S 763 mmHg 70%
    23:00 -3°C° 0 mm 4 m/S 764 mmHg 68%

    übermorgen, 19 Februar, Dienstag

    Zeit Temperatur Niederschläge Wind Luftdruck Luftfeuchtigkeit
    00:00 -3°C° 0 mm 4 m/S 764 mmHg 67%
    01:00 -3°C° 0 mm 4 m/S 764 mmHg 66%
    02:00 -2°C° 0 mm 3 m/S 765 mmHg 66%
    03:00 -4°C° 0 mm 3 m/S 765 mmHg 66%
    04:00 -4°C° 0 mm 3 m/S 765 mmHg 67%
    05:00 -4°C° 0 mm 3 m/S 765 mmHg 67%
    06:00 -4°C° 0 mm 3 m/S 765 mmHg 65%
    07:00 -4°C° 0 mm 3 m/S 766 mmHg 63%
    08:00 -4°C° 0 mm 3 m/S 766 mmHg 61%
    09:00 -2°C° 0 mm 3 m/S 767 mmHg 56%
    10:00 -1°C° 0 mm 3 m/S 767 mmHg 51%
    11:00 -1°C° 0 mm 2 m/S 767 mmHg 45%
    12:00 +1°C° 0 mm 2 m/S 767 mmHg 43%
    13:00 +2°C° 0 mm 2 m/S 767 mmHg 41%
    14:00 +3°C° 0 mm 1 m/S 766 mmHg 39%
    15:00 +3°C° 0 mm 1 m/S 766 mmHg 42%
    16:00 +2°C° 0 mm 1 m/S 766 mmHg 44%
    17:00 +2°C° 0 mm 1 m/S 766 mmHg 47%
    18:00 +1°C° 0 mm 1 m/S 766 mmHg 49%
    19:00 +1°C° 0 mm 1 m/S 766 mmHg 51%
    20:00 -2°C° 0 mm 2 m/S 766 mmHg 52%
    21:00 -2°C° 0 mm 2 m/S 766 mmHg 57%
    22:00 -2°C° 0 mm 3 m/S 766 mmHg 61%
    23:00 -2°C° 0 mm 3 m/S 766 mmHg 66%

    20 Februar, Mittwoch

    Zeit Temperatur Niederschläge Wind Luftdruck Luftfeuchtigkeit
    00:00 -2°C° 0 mm 3 m/S 766 mmHg 68%
    01:00 -4°C° 0 mm 3 m/S 766 mmHg 71%
    02:00 -4°C° 0 mm 3 m/S 766 mmHg 73%
    03:00 -4°C° 0 mm 3 m/S 765 mmHg 72%
    04:00 -4°C° 0 mm 3 m/S 765 mmHg 71%
    05:00 -4°C° 0 mm 3 m/S 765 mmHg 71%
    06:00 -4°C° 0 mm 3 m/S 765 mmHg 69%
    07:00 -4°C° 0 mm 4 m/S 764 mmHg 67%
    08:00 -3°C° 0 mm 4 m/S 764 mmHg 65%
    09:00 -2°C° 0 mm 4 m/S 764 mmHg 61%
    10:00 -1°C° 0 mm 4 m/S 764 mmHg 56%
    11:00 +1°C° 0 mm 4 m/S 764 mmHg 52%
    12:00 +3°C° 0 mm 4 m/S 763 mmHg 54%
    13:00 +3°C° 0 mm 4 m/S 763 mmHg 55%
    14:00 +4°C° 0 mm 4 m/S 762 mmHg 57%
    15:00 +4°C° 0 mm 4 m/S 762 mmHg 62%
    16:00 +3°C° 0 mm 4 m/S 762 mmHg 68%
    17:00 +3°C° 0 mm 3 m/S 762 mmHg 73%
    18:00 +3°C° 0 mm 4 m/S 762 mmHg 76%
    19:00 +3°C° 0 mm 4 m/S 762 mmHg 79%
    20:00 +3°C° 0 mm 4 m/S 762 mmHg 82%
    21:00 +3°C° 0 mm 4 m/S 761 mmHg 84%
    22:00 +3°C° 0 mm 4 m/S 761 mmHg 86%
    23:00 +2°C° 0 mm 5 m/S 761 mmHg 89%

    21 Februar, Donnerstag

    Zeit Temperatur Niederschläge Wind Luftdruck Luftfeuchtigkeit
    00:00 +3°C° 0 mm 4 m/S 761 mmHg 90%
    01:00 +3°C° 0 mm 4 m/S 761 mmHg 92%
    02:00 +3°C° 0 mm 4 m/S 760 mmHg 94%
    03:00 +3°C° 0.1 mm 4 m/S 760 mmHg 94%
    04:00 +3°C° 0.1 mm 3 m/S 760 mmHg 95%
    05:00 +2°C° 0.1 mm 3 m/S 760 mmHg 95%
    06:00 +2°C° 0 mm 3 m/S 760 mmHg 94%
    07:00 +3°C° 0 mm 3 m/S 760 mmHg 92%
    08:00 +3°C° 0 mm 3 m/S 760 mmHg 91%
    09:00 +3°C° 0 mm 4 m/S 759 mmHg 83%
    10:00 +3°C° 0 mm 5 m/S 759 mmHg 75%
    11:00 +4°C° 0 mm 6 m/S 759 mmHg 66%
    12:00 +5°C° 0 mm 6 m/S 759 mmHg 65%
    13:00 +5°C° 0 mm 6 m/S 758 mmHg 64%
    14:00 +5°C° 0 mm 6 m/S 758 mmHg 62%
    15:00 +5°C° 0 mm 6 m/S 758 mmHg 62%
    16:00 +6°C° 0 mm 5 m/S 758 mmHg 62%
    17:00 +5°C° 0 mm 5 m/S 758 mmHg 62%
    18:00 +5°C° 0 mm 5 m/S 758 mmHg 64%
    19:00 +3°C° 0 mm 5 m/S 759 mmHg 67%
    20:00 +4°C° 0 mm 4 m/S 759 mmHg 70%
    21:00 +3°C° 0 mm 4 m/S 759 mmHg 71%
    22:00 +3°C° 0 mm 4 m/S 759 mmHg 72%
    23:00 +3°C° 0 mm 4 m/S 759 mmHg 74%

    22 Februar, Freitag

    Zeit Temperatur Niederschläge Wind Luftdruck Luftfeuchtigkeit
    00:00 +1°C° 0 mm 4 m/S 759 mmHg 76%
    01:00 +2°C° 0 mm 3 m/S 759 mmHg 78%
    02:00 +1°C° 0 mm 3 m/S 759 mmHg 81%
    03:00 +2°C° 0 mm 2 m/S 759 mmHg 80%
    04:00 +2°C° 0 mm 2 m/S 759 mmHg 80%
    05:00 +3°C° 0 mm 1 m/S 759 mmHg 80%
    06:00 +2°C° 0.3 mm 2 m/S 759 mmHg 80%
    07:00 +2°C° 0.3 mm 2 m/S 759 mmHg 79%
    08:00 +2°C° 0.3 mm 2 m/S 759 mmHg 79%
    09:00 +2°C° 0.3 mm 2 m/S 759 mmHg 80%
    10:00 +2°C° 0.3 mm 2 m/S 759 mmHg 80%
    11:00 +1°C° 0.3 mm 3 m/S 759 mmHg 80%
    12:00 +2°C° 0.2 mm 2 m/S 759 mmHg 77%
    13:00 +2°C° 0.2 mm 2 m/S 758 mmHg 74%
    14:00 +2°C° 0.2 mm 2 m/S 758 mmHg 70%
    15:00 +1°C° 0.3 mm 3 m/S 758 mmHg 72%
    16:00 -1°C° 0.3 mm 4 m/S 758 mmHg 73%
    17:00 -1°C° 0.3 mm 5 m/S 758 mmHg 74%
    18:00 -3°C° 0.5 mm 6 m/S 759 mmHg 77%
    19:00 -4°C° 0.5 mm 7 m/S 759 mmHg 80%
    20:00 -6°C° 0.5 mm 7 m/S 759 mmHg 84%
    21:00 -7°C° 0.5 mm 8 m/S 760 mmHg 84%
    22:00 -8°C° 0.5 mm 8 m/S 760 mmHg 84%
    23:00 -10°C° 0.5 mm 9 m/S 761 mmHg 84%
    Mehr zeigen